This is the latest recevied weather packets stored in our database for station/object N7IGG. If no packets are shown the sender has not sent any weather packets the latest 10 day(s).
| Time | Temp. | Humidity | Pressure | Rain* | Wind** | Luminosity | Snow |
|---|---|---|---|---|---|---|---|
| 1777491075 | 15.56° C | 69% | 1024.5 hPa | 0 mm | - | 642 W/m² | - |
| 1777490770 | 15.56° C | 72% | 1024.4 hPa | 0 mm | - | 664 W/m² | - |
| 1777490467 | 15.56° C | 73% | 1024.5 hPa | 0 mm | - | 668 W/m² | - |
| 1777490163 | 15° C | 74% | 1024.6 hPa | 0 mm | - | 675 W/m² | - |
| 1777489860 | 15° C | 74% | 1024 hPa | 0 mm | - | 595 W/m² | - |
| 1777489558 | 15° C | 73% | 1024 hPa | 0 mm | - | 601 W/m² | - |
| 1777489254 | 15° C | 74% | 1024 hPa | 0 mm | - | 570 W/m² | - |
| 1777488951 | 15° C | 74% | 1024 hPa | 0 mm | - | 612 W/m² | - |
| 1777488648 | 14.44° C | 74% | 1024.1 hPa | 0 mm | - | 640 W/m² | - |
| 1777488346 | 14.44° C | 74% | 1024.4 hPa | 0 mm | - | 544 W/m² | - |
| 1777488045 | 14.44° C | 74% | 1024.2 hPa | 0 mm | - | 548 W/m² | - |
| 1777487741 | 14.44° C | 75% | 1024.3 hPa | 0 mm | - | 608 W/m² | - |
| 1777487439 | 13.89° C | 77% | 1024.4 hPa | 0 mm | - | 593 W/m² | - |
| 1777487137 | 13.89° C | 75% | 1024.3 hPa | 0 mm | - | 509 W/m² | - |
| 1777486832 | 13.89° C | 77% | 1024.3 hPa | 0 mm | - | 62 W/m² | - |
| 1777486530 | 13.33° C | 78% | 1024.5 hPa | 0 mm | - | 551 W/m² | - |
| 1777486227 | 12.78° C | 81% | 1024.4 hPa | 0 mm | - | 57 W/m² | - |
| 1777485925 | 12.78° C | 83% | 1024.5 hPa | 0 mm | - | 565 W/m² | - |
| 1777485621 | 12.78° C | 83% | 1024.5 hPa | 0 mm | - | 234 W/m² | - |
| 1777485315 | 12.22° C | 82% | 1024.3 hPa | 0 mm | - | 217 W/m² | - |
| 1777485012 | 12.22° C | 83% | 1024.3 hPa | 0 mm | - | 131 W/m² | - |
| 1777484710 | 12.22° C | 83% | 1024.6 hPa | 0 mm | - | 53 W/m² | - |
| 1777484405 | 12.22° C | 84% | 1024.5 hPa | 0 mm | - | 56 W/m² | - |
| 1777484102 | 12.22° C | 84% | 1024.6 hPa | 0 mm | - | 191 W/m² | - |
| 1777483798 | 12.22° C | 84% | 1024.6 hPa | 0 mm | - | 50 W/m² | - |
* Rain latest hour (hover to see other rain measurements)
** Current wind speed in m/s (hover to see current wind gust speed)